Change the Weather History Date:

Sunday, May 19, 2013

  Actual Average Record
Temperature  
Mean Temperature 54 °F 58 °F  
Max Temperature 67 °F 71 °F 90 °F (1970)
Min Temperature 41 °F 44 °F 24 °F (1971)
Degree Days  
Heating Degree Days 11 8  
Month to date heating degree days 159 197  
Since 1 July heating degree days 7503 7076  
Cooling Degree Days 0 0  
Month to date cooling degree days 8 0  
Year to date cooling degree days 8 0  
Growing Degree Days 4 (Base 50)    
Moisture  
Dew Point 31 °F    
Average Humidity 48    
Maximum Humidity 73    
Minimum Humidity 23    
Precipitation  
Precipitation 0.00 in 0.02 in 0.85 in (1938)
Month to date precipitation 0.80 0.58  
Year to date precipitation 3.32 3.10  
Sea Level Pressure  
Sea Level Pressure 29.86 in    
Wind  
Wind Speed 6 mph (WNW)    
Max Wind Speed 23 mph    
Max Gust Speed 31 mph    
Visibility 10 miles    
Events      
T = Trace of Precipitation, MM = Missing Value Source: NWS Daily Summary

Daily Weather History Graph

Daily Weather History Graph

Search for Another Location

Airport or City:

Trip Planner

Search our weather history database for the weather conditions in past years. The results will help you decide how hot, cold, wet, or windy it might be!

Date:

Astronomy

May. 19, 2013 Rise Set
Actual Time 5:57 AM MDT 8:31 PM MDT
Civil Twilight 5:26 AM MDT 9:03 PM MDT
Nautical Twilight 4:47 AM MDT 9:42 PM MDT
Astronomical Twilight 4:03 AM MDT 10:26 PM MDT
Moon 2:38 PM MDT (5/19) 2:24 AM MDT (5/19)
Length of Visible Light 15h 36m
Length of Day
14h 33m
Waxing Gibbous, 66% of the Moon is Illuminated
May 19
Waxing Gibbous
May 24
Full
May 31
Last Quarter
Jun 8
New
Jun 16
First Quarter

Hourly Weather History & Observations

Time (MDT) Temp. Windchill Dew Point Humidity Pressure Visibility Wind Dir Wind Speed Gust Speed Precip Events Conditions
12:53 AM 51.1 °F - 36.0 °F 56% 29.88 in 10.0 mi WNW 3.5 mph - N/A   Overcast
1:53 AM 48.9 °F - 32.0 °F 52% 29.87 in 10.0 mi Calm Calm - N/A   Overcast
2:53 AM 46.9 °F - 35.1 °F 63% 29.87 in 10.0 mi West 4.6 mph - N/A   Mostly Cloudy
4:53 AM 45.0 °F 42.6 °F 34.0 °F 65% 29.88 in 10.0 mi West 4.6 mph - N/A   Clear
6:53 AM 48.0 °F - 33.1 °F 56% 29.90 in 10.0 mi NNW 3.5 mph - N/A   Mostly Cloudy
7:53 AM 52.0 °F - 32.0 °F 47% 29.89 in 10.0 mi Calm Calm - N/A   Scattered Clouds
8:53 AM 53.1 °F - 35.1 °F 50% 29.90 in 10.0 mi SSE 6.9 mph - N/A   Clear
9:53 AM 55.9 °F - 32.0 °F 40% 29.89 in 10.0 mi SSE 6.9 mph - N/A   Clear
10:53 AM 57.9 °F - 30.9 °F 36% 29.87 in 10.0 mi SSW 9.2 mph - N/A   Partly Cloudy
11:53 AM 61.0 °F - 28.0 °F 29% 29.86 in 10.0 mi Variable 4.6 mph - N/A   Mostly Cloudy
2:53 PM 60.1 °F - 28.9 °F 31% 29.84 in 10.0 mi WNW 17.3 mph 27.6 mph N/A   Overcast
3:53 PM 62.1 °F - 25.0 °F 24% 29.82 in 10.0 mi Calm Calm - N/A   Partly Cloudy
4:53 PM 64.0 °F - 27.0 °F 25% 29.80 in 10.0 mi SSE 5.8 mph - N/A   Mostly Cloudy
5:53 PM 64.0 °F - 28.9 °F 27% 29.81 in 10.0 mi North 17.3 mph 23.0 mph N/A   Scattered Clouds
6:53 PM 60.1 °F - 30.9 °F 33% 29.82 in 10.0 mi NNW 12.7 mph - N/A   Mostly Cloudy
7:53 PM 57.9 °F - 30.9 °F 36% 29.83 in 10.0 mi North 12.7 mph - N/A   Mostly Cloudy
8:53 PM 57.0 °F - 28.9 °F 34% 29.86 in 10.0 mi WNW 5.8 mph - N/A   Overcast
10:53 PM 55.0 °F - 28.9 °F 37% 29.89 in 10.0 mi NNW 5.8 mph - N/A   Mostly Cloudy
11:53 PM 50.0 °F - 35.1 °F 57% 29.90 in 10.0 mi SSW 4.6 mph - N/A   Mostly Cloudy